Home > Weather > Riesa > Past weeks

Flag for Germany Past Weather in Riesa, Saxony, Germany — Yesterday and Last 2 Weeks

Now
77 °F

Passing clouds.


Feels Like: 78 °F
Forecast: 58 / 72 °F
Wind: 9 mph from Southwest

Location: Dresden-Klotzsche

Current Time: Jun 29, 2016 at 6:37:22 PM

Latest Report: Jun 29, 2016 at 5:50 PM


Visibility: N/A

Pressure: 29.89 "Hg

Humidity: 44%

Dew Point: 54 °F

Location of RiesaLocation

Past Weather in Riesa — Graph

°F

Riesa Temperature Yesterday

Maximum temperature yesterday: 72 °F (at 4:20 PM)
Minimum temperature yesterday: 57 °F (at 2:20 AM)
Average temperature yesterday: 64 °F

High & Low Weather Summary for the Past Weeks

 TemperatureHumidityPressure
High91 °F (Jun 24, 4:50 PM)100% (Jun 14, 10:50 PM)30.27 "Hg (Jun 14, 10:50 PM)
Low52 °F (Jun 16, 4:50 AM)29% (Jun 24, 2:20 PM)29.50 "Hg (Jun 14, 5:20 PM)
Average66 °F74%29.97 "Hg
* Reported Jun 14 5:20 PM — Jun 29 5:20 PM, Riesa, Weather by CustomWeather, © 2016

Note: Actual official high and low records may vary slightly from our data, if they occured in-between our weather recording intervals... More about our weather records

Advertising

Riesa Weather History for the Previous 24 Hours

Scroll right to see more
 ConditionsComfort  
Time TempWeatherWind HumidityBarometerVisibility
5:20 PM
Wed, Jun 29
77 °FPassing clouds.14 mph42%29.89 "HgN/A
4:50 PM77 °FPassing clouds.13 mph42%29.89 "HgN/A
4:20 PM77 °FPassing clouds.14 mph42%29.92 "HgN/A
3:20 PM77 °FPassing clouds.8 mph47%29.92 "HgN/A
2:50 PM75 °FPassing clouds.12 mph47%29.92 "HgN/A
2:20 PM77 °FScattered clouds.15 mph44%29.92 "HgN/A
1:50 PM73 °FScattered clouds.10 mph50%29.92 "HgN/A
1:20 PM73 °FScattered clouds.14 mph50%29.92 "HgN/A
12:50 PM73 °FScattered clouds.12 mph53%29.92 "HgN/A
12:20 PM73 °FScattered clouds.14 mph53%29.92 "HgN/A
11:50 AM73 °FScattered clouds.12 mph57%29.92 "HgN/A
11:20 AM72 °FScattered clouds.13 mph65%29.92 "HgN/A
10:20 AM70 °FScattered clouds.8 mph73%29.92 "HgN/A
9:50 AM68 °FSunny.6 mph83%29.92 "Hg10 mi
9:20 AM66 °FSunny.9 mph88%29.92 "Hg10 mi
8:50 AM63 °FScattered clouds.9 mph94%29.92 "HgN/A
8:20 AM63 °FSunny.7 mph94%29.92 "Hg10 mi
7:50 AM61 °FSunny.5 mph100%29.92 "Hg10 mi
7:20 AM61 °FLight rain. More clouds than sun.5 mph94%29.92 "HgN/A
6:50 AM59 °FLight rain. More clouds than sun.2 mph100%29.92 "Hg6 mi
6:20 AM59 °FRain. More clouds than sun.1 mph100%29.92 "Hg5 mi
5:20 AM61 °FRain. Partly cloudy.7 mph88%29.92 "Hg6 mi
4:50 AM64 °FLight rain. Clear.10 mph73%29.89 "HgN/A
4:20 AM63 °FClear.10 mph77%29.89 "Hg10 mi
3:50 AM63 °FClear.9 mph77%29.92 "Hg10 mi
3:20 AM63 °FClear.8 mph77%29.92 "Hg10 mi
2:50 AM61 °FClear.8 mph83%29.92 "Hg10 mi
2:20 AM61 °FClear.10 mph88%29.95 "Hg10 mi
1:50 AM61 °FClear.9 mph88%29.95 "Hg10 mi
1:20 AM61 °FClear.8 mph83%29.95 "Hg10 mi
12:50 AM61 °FClear.8 mph83%29.98 "Hg10 mi
12:20 AM63 °FClear.7 mph77%29.98 "Hg10 mi
11:20 PM
Tue, Jun 28
64 °FClear.7 mph73%29.98 "Hg10 mi
10:50 PM64 °FClear.6 mph73%30.01 "Hg10 mi
10:20 PM66 °FPartly sunny.6 mph64%30.01 "HgN/A
9:50 PM66 °FSunny.3 mph64%30.01 "Hg10 mi
9:20 PM66 °FScattered clouds.1 mph64%30.01 "HgN/A
8:50 PM66 °FSunny.1 mph64%30.01 "Hg10 mi
8:20 PM68 °FSunny.1 mph60%30.01 "Hg10 mi
7:50 PM68 °FSunny.2 mph60%30.01 "Hg10 mi
7:20 PM70 °FScattered clouds.2 mph57%30.01 "HgN/A
6:50 PM68 °FPartly sunny.2 mph64%30.01 "HgN/A
6:20 PM70 °FScattered clouds.5 mph57%30.01 "HgN/A
Weather by CustomWeather, © 2016

See weather overviewHow to use our weather pages